Location: Azenweiler
(47.8027°N, 9.4096°E)
Time: 03:24:34
(UTC+00:00)

Cosmos 1626 Rocket - Pass Details

Date: 18 March 2026
Orbit: 596 x 624 km, 82.5° (Epoch: 13 April)

Event Time Altitude Azimuth Distance (km) Brightness Sun altitude
Rises 02:14:03 0° 7° (N) 2,896 7.6 -31.4°
Reaches altitude 10° 02:17:30 10° 35° (NE) 1,977 7.0 -30.9°
Maximum altitude 02:19:32 13° 63° (ENE) 1,777 6.7 -30.7°
Drops below altitude 10° 02:21:34 10° 91° (E) 1,962 6.7 -30.4°
Sets 02:24:57 0° 120° (ESE) 2,852 7.2 -29.9°
